Regional Weather Roundup
Issued by NWS

Home | Current Version | Previous Version | Graphics & Text | Print | Product List | Glossary On
Versions: 1 2 3 4 5 6 7 8 9 10 11 12 13 14 15 16 17 18 19 20 21 22 23 24 25 26 27 28 29 30 31 32 33 34 35 36 37 38 39 40 41 42 43 44 45 46 47 48 49 50
000
ASUS44 KMEG 270800
RWRTN
TENNESSEE HOURLY STATE WEATHER ROUNDUP
NATIONAL WEATHER SERVICE MEMPHIS TN
300 AM CDT WED MAY 27 2015

TNZ002-004-019-021-049-052-054-088>092-270900-
WEST TENNESSEE

CITY           SKY/WX    TMP DP  RH WIND       PRES   REMARKS
MEMPHIS INTL   MOCLDY    71  67  87 S6        30.07S
JACKSON        MOCLDY    68  64  87 S6        30.08R
DYERSBURG      CLEAR     66  54  63 CALM      30.07R
PARIS          CLEAR     63  63 100 S5        30.07S
LEXINGTON      CLEAR     66  64  94 S5        30.09R
$$

TNZ008-025-027-028-033-062-065-066-270900-
NORTH MIDDLE TENNESSEE

CITY           SKY/WX    TMP DP  RH WIND       PRES   REMARKS
NASHVILLE      MOCLDY    68  67  96 S6        30.12R
CLARKSVILLE    PTCLDY    64  64 100 S3        30.08R
SMYRNA         PTCLDY    68  66  94 S5        30.13R
COOKEVILLE     CLEAR     66  64  94 S3        30.14R
CROSSVILLE     CLOUDY    66  62  87 VRB6      30.18F
$$

TNZ061-075-076-078-094-096-097-270900-
SOUTH MIDDLE TENNESSEE

CITY           SKY/WX    TMP DP  RH WIND       PRES   REMARKS
FAYETTEVILLE   CLOUDY   N/A N/A N/A MISG      30.15S
TULLAHOMA      CLOUDY    66  64  94 CALM      30.16R
WINCHESTER     PTCLDY    64  63  94 SE6       30.16R
MCMINNVILLE    CLEAR     66  66 100 CALM      30.15R
COLUMBIA       CLOUDY    70  70 100 S6        30.11R
SHELBYVILLE    CLEAR     68  66  94 S6        30.14R
$$

TNZ017-018-042-046-047-270900-
NORTHEAST TENNESSEE

CITY           SKY/WX    TMP DP  RH WIND       PRES   REMARKS
TRI CITIES     CLOUDY    68  65  90 CALM      30.18S
ELIZABETHTON   SUNNY     63  63 100 CALM      30.19S
$$

TNZ012-013-036-069-073-074-270900-
CENTRAL EAST TENNESSEE

CITY           SKY/WX    TMP DP  RH WIND       PRES   REMARKS
KNOXVILLE      MOCLDY    67  62  84 W8        30.17S
OAK RIDGE      CLOUDY    68  64  87 VRB5      30.18F
GATLINBURG     SUNNY     63  61  94 CALM      30.18R
$$

TNZ083-085-099-270900-
SOUTHEAST TENNESSEE

CITY           SKY/WX    TMP DP  RH WIND       PRES   REMARKS
CHATTANOOGA    CLOUDY    67  64  90 S7        30.17F
$$

SKY/WX REPORTED AS FAIR MEANS FEW OR NO CLOUDS BELOW
12 THOUSAND FEET.



USA.gov is the U.S. government's official web portal to all federal, state and local government web resources and services.